Wind_Speed
12 10 4 7 9 14 15 19 19 19 18 17 17 15 14 12 11 10 9 8 7 6 5 4 4 4 4 5 5 5 5 4 4 4 4 3 3 3 2 1 1 1 1
11 9 3 3 7 12 14 17 18 18 17 17 16 15 13 12 11 11 10 9 8 7 6 6 5 5 5 5 5 5 5 4 4 3 3 3 3 3 2 2 2 2 2
10 8 4 3 6 9 11 14 18 16 16 16 15 14 13 12 11 11 11 10 9 8 8 7 7 6 6 5 5 4 4 4 3 3 3 2 2 2 2 2 2 3 3
10 9 6 3 5 8 11 13 16 17 17 16 15 14 14 13 12 12 11 11 10 9 9 8 8 7 6 5 4 3 3 3 2 2 1 1 0 1 2 2 3 4 4
9 8 7 5 5 8 11 12 14 17 17 16 15 14 14 13 13 12 12 11 11 11 11 10 9 8 7 6 5 4 3 3 3 2 2 2 3 4 4 5 5 5 5
9 7 6 6 6 7 9 11 14 15 16 15 15 14 14 14 13 13 13 12 12 12 12 12 11 10 9 8 7 6 6 6 5 5 5 6 6 7 8 8 8 8 7
8 7 6 5 5 6 8 10 11 13 14 14 15 14 15 14 14 14 13 14 14 14 13 13 12 12 12 11 11 10 9 9 9 9 9 9 10 10 11 11 11 11 11
7 6 5 5 5 6 7 8 9 11 13 15 15 15 15 15 15 15 15 15 15 15 14 14 14 14 14 14 13 13 13 13 13 13 13 14 14 14 14 14 14 14 14
5 4 4 3 4 4 5 7 9 10 12 13 15 15 15 15 15 15 16 16 16 16 16 16 16 16 16 16 16 16 16 17 17 17 18 18 17 17 17 17 17 17 17
4 3 3 2 1 2 3 6 9 11 11 12 13 14 14 15 15 16 17 17 17 18 18 18 18 18 18 19 19 20 20 20 21 21 21 21 21 21 21 21 21 21 20
3 3 4 2 1 2 3 5 7 9 11 12 13 14 14 15 16 17 18 18 19 20 20 20 21 21 21 22 22 23 23 23 24 24 25 24 24 24 24 24 24 24 24
4 4 5 4 4 4 4 6 8 9 10 13 14 14 15 16 17 18 19 19 21 22 22 23 23 24 24 25 25 26 26 26 27 27 28 28 27 27 27 27 27 27 27
4 5 5 6 6 6 5 7 8 10 11 12 13 14 15 16 17 18 20 21 22 23 24 25 26 27 27 28 28 29 29 29 29 29 30 30 30 30 30 30 30 30 30
7 6 6 6 7 7 7 8 10 11 11 12 13 14 15 16 18 19 21 22 24 24 26 26 28 29 30 31 31 31 32 32 32 32 31 31 32 32 33 33 33 33 33
7 7 7 7 8 8 8 9 11 12 12 13 14 16 17 18 19 21 23 24 26 26 27 28 29 30 32 33 33 33 33 34 34 34 34 34 35 35 35 36 36 36 36
8 8 9 9 10 10 10 12 14 15 15 15 16 18 18 18 19 22 23 25 27 29 29 30 31 32 34 34 35 35 35 36 37 37 37 38 38 38 38 38 38 39 39
10 10 11 11 11 12 13 14 15 16 16 18 19 20 21 21 22 23 25 27 28 30 31 31 33 33 34 35 35 36 37 38 38 39 40 40 40 41 41 41 42 42 43
12 12 12 12 13 14 15 16 17 19 20 21 22 23 23 23 25 27 28 30 31 32 34 35 36 36 36 37 36 37 38 39 40 41 42 42 43 43 44 44 45 46 47
13 13 13 14 15 16 17 18 19 21 22 22 23 24 25 27 27 29 30 31 32 33 34 35 35 35 37 38 38 39 40 40 41 42 42 43 44 45 46 47 49 49 50
15 15 16 16 17 18 19 20 21 23 24 25 26 27 28 29 30 31 32 33 33 33 35 35 35 35 37 38 39 39 40 41 42 43 44 46 47 49 50 51 52 54 55
16 17 17 18 19 20 21 22 23 24 26 27 28 29 30 31 32 32 32 33 33 34 34 35 35 36 37 39 40 42 43 44 45 46 48 50 52 53 55 57 58 60 61
17 18 19 20 21 22 23 24 25 26 28 29 30 31 32 32 32 32 32 33 34 34 35 36 37 38 39 41 43 44 46 47 49 51 52 54 56 58 60 62 64 65 67
18 19 20 21 23 24 25 26 27 28 30 31 31 32 32 33 33 33 34 35 36 37 37 38 39 41 42 44 46 48 50 52 54 56 58 59 61 63 64 66 68 69 70
19 21 22 23 24 25 26 27 28 29 30 31 32 33 33 34 34 35 36 37 38 39 40 41 43 45 47 49 50 52 54 57 59 60 62 64 65 66 67 68 68 69 69
20 22 23 24 25 26 27 28 29 30 31 32 33 33 34 35 36 37 38 39 40 42 44 45 47 49 51 53 55 56 58 60 62 63 64 65 65 65 65 65 66 66 66
21 22 23 24 25 27 28 29 30 31 32 33 33 34 35 36 38 39 40 42 43 45 47 48 50 52 54 55 57 58 59 60 60 60 60 60 60 60 60 60 59 59 59
Wind_Direction
352 342 303 208 198 195 198 199 199 202 202 203 204 207 211 214 218 214 211 212 210 204 193 180 162 147 138 131 122 118 117 116 109 100 93 87 83 85 81 70 52 38 9
4 5 9 199 189 189 190 190 190 193 197 199 201 202 208 212 211 209 207 205 205 201 191 177 167 157 147 139 130 125 122 121 116 108 101 95 88 82 74 51 23 1 343
12 21 39 116 165 174 181 185 189 188 189 194 194 197 201 202 206 205 201 203 204 201 194 184 178 171 163 153 143 137 134 132 128 120 112 103 90 67 51 22 360 347 337
17 29 43 98 150 170 176 181 186 184 184 188 192 195 198 202 204 203 202 206 206 201 195 190 189 187 186 182 174 173 169 160 158 154 141 113 24 345 335 331 329 325 319
25 32 48 86 128 160 172 177 182 185 187 189 194 199 203 206 206 204 204 207 205 202 200 200 202 202 204 209 213 219 221 216 224 243 261 273 286 297 302 304 307 308 306
34 38 56 88 122 144 161 170 178 184 188 194 199 204 207 208 210 208 208 209 208 209 209 212 214 219 224 230 236 242 246 249 255 263 270 276 281 286 291 294 297 298 297
38 45 56 84 125 145 159 168 177 186 194 198 200 203 207 209 210 211 213 216 217 218 217 218 224 230 235 240 244 249 254 257 262 266 271 276 281 284 285 287 288 291 292
32 40 50 72 103 142 161 172 182 191 198 202 203 206 210 212 214 217 221 223 224 224 224 227 232 237 241 245 250 254 258 261 265 269 273 277 279 282 283 284 284 285 286
16 28 39 65 95 123 162 183 193 197 199 201 208 212 215 217 220 223 227 229 231 233 235 237 240 245 249 252 256 259 262 264 267 271 274 277 279 280 282 283 284 284 283
352 360 4 30 107 133 173 196 204 207 207 209 211 214 217 223 228 230 232 234 237 241 243 246 249 251 254 257 260 262 264 265 268 270 273 275 277 279 280 282 283 282 282
339 336 326 308 254 230 217 208 211 215 218 219 220 222 226 231 235 237 238 240 244 247 249 251 253 255 258 259 261 263 265 266 268 270 272 274 275 277 278 279 280 280 280
309 307 307 288 265 249 238 224 222 226 228 229 229 231 237 242 245 245 246 248 250 252 253 255 256 257 258 260 261 263 264 266 268 270 271 273 274 275 276 277 277 278 278
296 286 286 288 280 271 257 243 240 240 239 238 236 241 245 247 248 250 253 254 255 255 255 256 257 258 260 261 262 264 264 265 267 269 271 272 272 273 273 274 275 276 277
290 281 276 276 279 283 274 262 257 255 250 247 248 250 251 255 255 257 258 260 260 259 259 261 261 260 261 262 263 264 266 266 267 268 270 271 272 273 273 273 274 274 275
288 278 271 268 269 270 273 272 267 263 258 257 258 257 259 260 260 262 265 265 264 266 267 266 266 267 266 266 265 265 267 268 268 269 270 270 271 272 273 274 274 275 275
287 285 286 286 281 276 280 282 278 271 267 267 268 263 267 270 271 270 274 275 272 272 274 272 273 272 270 271 270 269 269 269 270 270 270 270 271 271 272 273 274 274 275
282 282 284 285 287 286 283 281 281 276 276 279 281 278 278 278 280 282 282 281 280 279 278 276 277 275 273 274 274 273 272 273 272 271 271 270 270 270 271 272 273 273 274
277 278 280 283 286 286 285 285 285 283 285 285 286 288 289 289 288 287 287 286 283 281 280 280 280 276 274 274 275 276 276 277 276 275 273 272 272 271 271 272 272 272 273
273 274 276 279 282 283 283 284 284 285 286 288 290 290 290 289 289 289 289 288 287 285 283 283 281 278 277 277 277 277 277 277 277 276 275 276 276 275 275 274 274 273 273
268 271 272 275 279 281 283 284 285 286 288 289 290 291 292 292 291 290 290 289 287 287 286 285 282 280 279 277 277 278 277 278 279 279 278 278 278 277 276 276 276 275 274
264 267 271 275 278 280 283 285 286 288 288 289 290 291 292 292 291 291 291 289 287 287 287 285 284 282 281 280 279 280 280 280 281 281 280 280 279 279 278 278 278 277 277
261 266 270 274 277 279 282 284 286 287 288 288 289 290 291 290 290 289 288 287 287 286 286 285 285 285 285 285 284 283 283 283 283 282 282 281 281 281 280 280 280 279 278
262 268 272 274 277 279 280 282 285 286 287 287 288 289 289 288 288 288 288 288 288 288 288 288 288 288 288 287 287 286 286 285 285 284 283 283 282 282 281 281 280 280 279
266 270 273 276 278 280 282 283 285 287 287 288 289 289 288 288 288 288 288 288 289 289 290 290 290 290 289 289 289 289 288 287 287 286 286 285 284 284 283 282 281 280 280
269 273 276 278 279 281 283 285 286 287 288 288 288 288 289 289 289 289 290 290 290 291 291 291 292 292 292 291 291 291 290 289 289 288 288 287 287 286 285 284 283 282 282
272 275 277 279 281 282 284 286 286 287 288 289 290 289 290 290 290 290 291 291 291 292 292 293 293 294 294 294 294 293 292 291 291 290 290 289 289 288 287 286 285 284 283
Height
5838 5835 5832 5833 5833 5837 5841 5846 5850 5855 5859 5863 5865 5868 5870 5872 5873 5875 5876 5878 5879 5880 5881 5881 5881 5881 5881 5881 5881 5881 5881 5881 5881 5881 5881 5881 5881 5881 5881 5881 5881 5881 5881
5838 5835 5833 5832 5833 5836 5840 5844 5848 5853 5857 5860 5863 5866 5868 5870 5871 5873 5875 5876 5878 5879 5880 5880 5881 5881 5881 5881 5881 5882 5881 5881 5881 5881 5881 5881 5882 5881 5881 5881 5881 5881 5880
5839 5836 5834 5833 5835 5837 5839 5843 5847 5851 5854 5858 5861 5864 5866 5868 5870 5872 5874 5875 5876 5877 5878 5879 5880 5881 5881 5881 5881 5882 5882 5882 5882 5882 5882 5881 5881 5881 5881 5881 5881 5880 5880
5839 5836 5835 5834 5835 5837 5839 5842 5845 5849 5852 5856 5859 5862 5864 5866 5869 5870 5872 5874 5875 5876 5877 5878 5879 5880 5880 5881 5881 5881 5881 5881 5882 5882 5881 5881 5881 5881 5880 5880 5880 5879 5879
5839 5838 5835 5835 5836 5837 5840 5842 5844 5848 5851 5855 5858 5860 5863 5865 5867 5869 5870 5872 5873 5875 5876 5877 5878 5879 5879 5880 5880 5880 5880 5881 5881 5881 5880 5880 5880 5880 5879 5879 5878 5878 5877
5841 5839 5838 5838 5838 5839 5840 5842 5844 5847 5850 5853 5856 5859 5861 5863 5865 5867 5868 5870 5871 5873 5874 5875 5876 5877 5877 5878 5878 5878 5879 5879 5879 5879 5879 5879 5878 5878 5877 5877 5876 5875 5875
5842 5841 5840 5839 5839 5840 5841 5842 5844 5847 5849 5852 5854 5857 5859 5862 5863 5865 5866 5868 5869 5870 5871 5872 5874 5874 5875 5876 5876 5876 5876 5876 5876 5876 5876 5876 5875 5875 5875 5874 5873 5872 5871
5842 5842 5841 5840 5840 5840 5841 5843 5844 5846 5848 5851 5853 5856 5858 5859 5861 5863 5864 5865 5867 5868 5869 5870 5871 5871 5872 5872 5873 5873 5873 5873 5873 5873 5872 5872 5872 5871 5870 5870 5869 5868 5867
5843 5843 5842 5841 5841 5841 5841 5842 5844 5846 5847 5849 5851 5853 5855 5857 5859 5860 5862 5863 5864 5864 5865 5866 5867 5868 5868 5869 5869 5869 5869 5869 5868 5868 5868 5867 5866 5866 5865 5864 5864 5863 5862
5843 5843 5843 5842 5842 5841 5841 5842 5843 5845 5846 5848 5850 5852 5853 5855 5857 5858 5859 5860 5860 5861 5862 5862 5863 5863 5864 5864 5864 5864 5864 5863 5863 5862 5862 5861 5860 5859 5859 5858 5857 5857 5856
5842 5842 5842 5842 5841 5841 5841 5841 5843 5844 5845 5846 5848 5849 5851 5852 5853 5854 5855 5856 5857 5857 5857 5858 5858 5858 5858 5858 5858 5858 5857 5857 5856 5856 5855 5854 5854 5852 5852 5851 5850 5849 5848
5841 5841 5841 5841 5840 5840 5839 5840 5841 5842 5843 5844 5845 5847 5848 5849 5850 5851 5852 5852 5852 5852 5852 5852 5852 5852 5852 5852 5852 5851 5850 5850 5849 5848 5848 5847 5846 5845 5844 5843 5842 5841 5840
5840 5839 5839 5839 5839 5838 5838 5838 5838 5839 5840 5841 5842 5843 5844 5845 5846 5847 5847 5847 5847 5846 5846 5846 5846 5845 5845 5844 5844 5843 5843 5842 5841 5840 5839 5838 5838 5837 5835 5834 5833 5832 5831
5837 5837 5837 5837 5837 5836 5836 5836 5836 5836 5837 5837 5838 5839 5839 5840 5841 5841 5841 5840 5840 5839 5838 5838 5837 5837 5837 5836 5835 5835 5834 5833 5832 5831 5830 5829 5828 5827 5826 5825 5824 5823 5822
5833 5834 5834 5834 5834 5834 5834 5834 5833 5833 5832 5832 5833 5834 5834 5834 5834 5834 5833 5832 5831 5831 5831 5830 5830 5828 5828 5827 5826 5825 5824 5824 5823 5822 5821 5819 5818 5817 5816 5815 5814 5812 5812
5830 5830 5830 5830 5830 5830 5829 5830 5829 5828 5826 5827 5827 5827 5827 5827 5827 5826 5825 5825 5824 5824 5823 5822 5821 5819 5819 5818 5817 5815 5815 5814 5813 5812 5810 5809 5807 5806 5805 5804 5802 5801 5800
5825 5826 5825 5825 5825 5825 5824 5824 5824 5823 5822 5822 5821 5821 5820 5819 5819 5818 5818 5817 5816 5816 5815 5814 5812 5810 5809 5808 5807 5806 5805 5803 5802 5800 5799 5797 5795 5794 5793 5791 5790 5789 5787
5821 5821 5820 5820 5820 5820 5819 5819 5819 5818 5817 5816 5815 5815 5814 5813 5812 5812 5810 5809 5808 5807 5806 5804 5802 5800 5799 5798 5797 5795 5794 5792 5790 5788 5786 5784 5782 5781 5780 5778 5777 5775 5773
5816 5816 5816 5815 5815 5815 5814 5814 5813 5812 5811 5810 5809 5808 5807 5806 5805 5803 5802 5800 5798 5797 5795 5793 5791 5790 5788 5787 5785 5784 5782 5780 5778 5776 5774 5772 5770 5768 5765 5764 5762 5761 5758
5811 5811 5811 5810 5810 5809 5809 5808 5807 5806 5804 5803 5802 5801 5799 5797 5796 5794 5793 5791 5788 5787 5785 5783 5781 5779 5777 5775 5773 5772 5770 5768 5766 5763 5760 5758 5755 5753 5750 5748 5746 5744 5741
5805 5806 5805 5805 5804 5803 5802 5801 5800 5799 5797 5796 5794 5793 5791 5789 5787 5785 5783 5781 5778 5776 5774 5772 5770 5769 5767 5764 5762 5759 5757 5754 5752 5749 5746 5742 5739 5736 5733 5729 5726 5724 5721
5800 5800 5800 5799 5798 5797 5796 5795 5793 5791 5790 5788 5786 5784 5782 5780 5778 5776 5773 5771 5769 5767 5764 5762 5759 5757 5754 5751 5749 5746 5743 5739 5736 5733 5729 5725 5721 5718 5713 5709 5705 5701 5698
5794 5794 5794 5793 5792 5791 5790 5788 5786 5784 5782 5780 5778 5776 5773 5771 5769 5766 5764 5761 5759 5756 5753 5750 5747 5744 5741 5737 5734 5731 5727 5723 5719 5715 5711 5707 5702 5697 5692 5687 5682 5678 5674
5787 5787 5787 5786 5785 5784 5782 5780 5778 5776 5774 5771 5769 5766 5764 5761 5759 5756 5754 5751 5748 5745 5741 5738 5734 5731 5727 5723 5719 5714 5710 5705 5700 5695 5690 5685 5680 5675 5670 5664 5659 5654 5649
5780 5780 5779 5778 5777 5775 5773 5772 5770 5767 5765 5763 5760 5758 5755 5752 5749 5746 5743 5740 5736 5733 5729 5725 5720 5716 5711 5706 5701 5696 5691 5685 5680 5674 5668 5663 5657 5651 5646 5640 5634 5629 5624
5773 5772 5771 5770 5768 5766 5765 5763 5761 5758 5756 5753 5751 5748 5745 5741 5738 5734 5731 5727 5723 5719 5715 5710 5705 5700 5694 5688 5683 5677 5671 5664 5659 5653 5647 5641 5635 5629 5624 5618 5613 5607 5602